DW8427 Weather Reports


time (UTC)temp
C
wind
direction
speed
KPH
gust
KPH
rain 1hr
cm
rain 24hr
cm
rain mn
cm
humidity
%
barometer
mb
20240614113038 13 145 0.0 8.0 0.00 0.00 0.00 70 1013.7
20240614111534 13 125 3.2 8.0 0.00 0.00 0.00 71 1013.8
20240614110033 13 129 0.0 11.3 0.00 0.00 0.00 72 1013.8
20240614104536 13 103 3.2 9.7 0.00 0.00 0.00 72 1013.6
20240614103028 13 136 4.8 12.9 0.00 0.00 0.00 72 1013.6
20240614101538 13 127 4.8 9.7 0.00 0.00 0.00 71 1013.5
20240614100029 13 93 1.6 14.5 0.00 0.00 0.00 71 1013.6
20240614094539 13 120 6.4 14.5 0.00 0.00 0.00 69 1013.6
20240614093018 14 121 0.0 8.0 0.00 0.00 0.00 69 1013.6
20240614091518 14 136 0.0 8.0 0.00 0.00 0.00 70 1013.8
20240614090016 14 91 3.2 8.0 0.00 0.00 0.00 71 1013.5
20240614084513 14 148 4.8 11.3 0.00 0.00 0.00 70 1013.7
20240614083009 14 96 1.6 9.7 0.00 0.00 0.00 69 1013.6
20240614081507 14 124 3.2 8.0 0.00 0.00 0.00 69 1014.0
20240614080017 15 148 4.8 12.9 0.00 0.00 0.00 69 1013.9
20240614074502 15 99 6.4 14.5 0.00 0.00 0.00 68 1013.9
20240614073104 15 158 3.2 11.3 0.00 0.00 0.00 68 1013.9
20240614071611 15 113 6.4 11.3 0.00 0.00 0.00 67 1014.0
20240614070055 15 115 8.0 14.5 0.00 0.00 0.00 67 1014.2
20240614064554 16 120 9.7 17.7 0.00 0.00 0.00 66 1014.1
20240614063127 17 105 6.4 11.3 0.00 0.00 0.00 65 1014.0
20240614061552 17 127 1.6 9.7 0.00 0.00 0.00 65 1014.0
20240614060054 17 122 1.6 9.7 0.00 0.00 0.00 64 1014.0
20240614054555 18 153 1.6 6.4 0.00 0.00 0.00 64 1013.9
20240614053048 18 127 3.2 14.5 0.00 0.00 0.00 63 1013.5
20240614051548 19 146 4.8 14.5 0.00 0.00 0.00 62 1013.6
20240614050048 20 144 0.0 4.8 0.00 0.00 0.00 60 1013.6
20240614044639 21 108 3.2 9.7 0.00 0.00 0.00 58 1013.3
20240614043036 21 123 4.8 12.9 0.00 0.00 0.00 56 1013.0
20240614041516 22 124 4.8 11.3 0.00 0.00 0.00 56 1012.6
20240614040006 22 86 0.0 8.0 0.00 0.00 0.00 56 1012.3
20240614034614 22 132 1.6 8.0 0.00 0.00 0.00 55 1012.2
20240614033001 23 112 0.0 8.0 0.00 0.00 0.00 53 1012.2
20240614031608 24 77 3.2 12.9 0.00 0.00 0.00 52 1012.1
20240614030042 25 184 3.2 14.5 0.00 0.00 0.00 50 1012.0
20240614024538 26 124 1.6 8.0 0.00 0.00 0.00 49 1011.8
20240614023001 26 146 3.2 12.9 0.00 0.00 0.00 48 1011.5
20240614021626 27 132 0.0 16.1 0.00 0.00 0.00 47 1011.4
20240614020102 27 125 4.8 12.9 0.00 0.00 0.00 45 1011.3
20240614014529 28 134 1.6 9.7 0.00 0.00 0.00 41 1011.2
20240614013043 28 131 4.8 17.7 0.00 0.00 0.00 41 1011.0
20240614011521 30 100 3.2 12.9 0.00 0.00 0.00 39 1011.0
20240614010025 29 143 1.6 17.7 0.00 0.00 0.00 41 1010.9
20240614004518 30 248 4.8 11.3 0.00 0.00 0.00 39 1010.8
20240614001605 31 131 4.8 12.9 0.00 0.00 0.00 38 1010.8
20240614000039 31 241 0.0 16.1 0.00 0.00 0.00 39 1010.8
20240613234525 30 179 3.2 14.5 0.00 0.00 0.00 39 1010.7
20240613233026 31 108 3.2 16.1 0.00 0.00 0.00 38 1010.8
20240613231518 31 104 3.2 9.7 0.00 0.00 0.00 37 1011.0
20240613230135 31 110 4.8 14.5 0.00 0.00 0.00 36 1010.9
20240613224602 32 108 0.0 11.3 0.00 0.00 0.00 36 1011.1
20240613221547 31 333 0.0 8.0 0.00 0.00 0.00 37 1011.1
20240613220059 32 146 0.0 6.4 0.00 0.00 0.00 36 1011.2
20240613214540 31 303 0.0 8.0 0.00 0.00 0.00 37 1011.4
20240613213038 31 146 0.0 9.7 0.00 0.00 0.00 38 1011.5
20240613211538 30 211 3.2 9.7 0.00 0.00 0.00 39 1011.4
20240613210034 30 205 0.0 8.0 0.00 0.00 0.00 40 1011.6
20240613204535 29 131 0.0 9.7 0.00 0.00 0.00 40 1011.7
20240613203030 28 8 0.0 8.0 0.00 0.00 0.00 41 1011.8
20240613201527 28 111 0.0 6.4 0.00 0.00 0.00 42 1011.9
20240613200033 27 185 0.0 6.4 0.00 0.00 0.00 44 1012.0
20240613194529 27 321 3.2 8.0 0.00 0.00 0.00 43 1012.2
20240613193035 26 262 0.0 6.4 0.00 0.00 0.00 45 1012.2
20240613191525 27 281 0.0 6.4 0.00 0.00 0.00 44 1012.3
20240613190022 27 279 0.0 6.4 0.00 0.00 0.00 43 1012.2
20240613184521 27 103 0.0 6.4 0.00 0.00 0.00 43 1012.2
20240613183018 26 248 0.0 6.4 0.00 0.00 0.00 47 1012.3
20240613181515 25 147 0.0 8.0 0.00 0.00 0.00 48 1012.2
20240613180017 25 235 0.0 6.4 0.00 0.00 0.00 48 1012.2
20240613174515 23 118 0.0 4.8 0.00 0.00 0.00 49 1012.2
20240613173027 23 86 0.0 6.4 0.00 0.00 0.00 48 1012.2
20240613171513 23 117 0.0 9.7 0.00 0.00 0.00 50 1012.3
20240613164559 22 119 1.6 11.3 0.00 0.00 0.00 50 1012.3
20240613164504 22 99 1.6 11.3 0.00 0.00 0.00 50 1012.3
20240613163042 21 112 0.0 8.0 0.00 0.00 0.00 51 1012.4
20240613161620 21 178 0.0 11.3 0.00 0.00 0.00 54 1012.3
20240613154542 18 116 1.6 11.3 0.00 0.00 0.00 60 1012.1
20240613153047 17 262 0.0 11.3 0.00 0.00 0.00 64 1012.1
20240613151534 17 120 1.6 9.7 0.00 0.00 0.00 68 1012.1
20240613150044 16 77 3.2 9.7 0.00 0.00 0.00 70 1012.0
20240613144538 15 85 6.4 9.7 0.00 0.00 0.00 73 1011.9
20240613143032 15 134 4.8 11.3 0.00 0.00 0.00 73 1011.9
20240613141529 15 143 4.8 11.3 0.00 0.00 0.00 74 1011.7
20240613140028 15 102 4.8 11.3 0.00 0.00 0.00 75 1011.6
20240613134538 14 134 4.8 9.7 0.00 0.00 0.00 76 1011.4
20240613133023 14 127 4.8 12.9 0.00 0.00 0.00 76 1011.2
20240613131522 14 146 1.6 9.7 0.00 0.00 0.00 76 1011.0
20240613130023 14 107 1.6 4.8 0.00 0.00 0.00 76 1010.8
20240613124533 14 125 1.6 6.4 0.00 0.00 0.00 76 1010.6
20240613123022 14 128 1.6 6.4 0.00 0.00 0.00 77 1010.4
20240613121519 14 112 1.6 6.4 0.00 0.00 0.00 77 1010.3
20240613120010 14 141 0.0 6.4 0.00 0.00 0.00 76 1010.1
20240613114516 14 104 0.0 3.2 0.00 0.00 0.00 76 1010.0